PSLV R/B, 41791

Orbit data source: Space-Track

PSLV R/B, 41791 is space debris in SSO originally from a launch on Mon, 26 Sep 2016 UTC launched from the Sirharikota (SRI). Debris objects in space refer to the collection of defunct objects orbiting the Earth. Examples of debris include non-operational satellites, rocket bodies, and fragments generated from explosions, collisions, or faulty payload assembly.

Loading next visibility...
Identifier
41791, 2016-059J
Orbit
SSO
Country
Flag of ININ / IND
Related business
Manufacturer
VSSC/LPSC
Mission
Spacecraft
Bus & Motor
PS-4, Unknown motor
Mass
920 kg wet, 920 kg dry
Launch date (UTC)
2016-09-26 (9 years ago)
Launch vehicle
Unknown
Launch site
Sirharikota (SRI)
Object type
Payload
Rocket body
Debris
Shape & HBR
Cyl + Cyl + 2 Nozzle, 1.6 m
Radar Cross Section
6.185 m², Large (>1 m²)

Expand to show TLE details & history
Last TLE update: 17 hours ago

TLE from 17 hours ago
0 PSLV R/B
1 41791U 16059J   25258.07472390  .00000376  00000-0  80811-4 0  9995
2 41791  97.8509 277.6407 0042351  77.0418 283.5510 14.63279821478430
Epoch: 2025-09-15T01:47Z
TLE epoch observation values (Epoch: 2025-09-15T01:47:36.144Z)
Latitude
0.00001°
Longitude
-103.5445°
Altitude
678.716 km
Speed
7.521 km/s
True Right ascension
18h 30m 33s
True Declination
0° 00' 00"
Sunlit
Object was in daylight at epoch
Visualization orbit readout
Latitude
Unknown
Longitude
Unknown
Altitude
Unknown
Speed
Unknown
Apparent Right ascension
Unknown
Apparent Declination
Unknown
Sunlit
N/A
Visualization observer readout
Local Sidereal Time
11:11:39
Azimuth
Unknown
Elevation
Unknown
Doppler factor
Unknown
Orbital elements
Apogee altitude
709.555 km
Perigee altitude
649.774 km
Semi-major axis
7,057.802 km
Eccentricity
0.00424
Inclination
97.8509°
RAAN
277.6407°
Arg. of periapsis
77.0418°
True anomaly
283.07862°
Mean anomaly
283.551°
Eccentric anomaly
283.31487°
Mean motion
3.66049 °/min
Orbital period
98.35 mins
BSTAR
0.000080811
Loading maneuver chart data...
Computing Atmospheric mass density...
Loading historical data...
Loading historical data...
Loading historical data...
Loading historical data...
Loading historical data...
Loading historical data...
Loading historical data...

Documentation

Showing up to 5 results
|